"Timestamp","TZ","WindDir_Mean (deg)","WindSpd_Mean (km/h)","WindSpd_Min (km/h)","WindSpd_Max (km/h)","Temp_Mean (deg)","RH_Mean (%)","MSLP_Mean (hPa)","Rain_Acc (mm)","Rain_Intensity (mm/h)","Hail_Acc (hits/cm2)","Hail_Intensity (hits/cm2hr)","Solar_Mean (W/m2)"
2022/07/22 00:00:00.012,n,103,3.96,2.88,4.32,15.5,83.7,1020.42,0,0,0,0,0.030479
2022/07/22 00:01:00.000,n,130,3.96,2.52,5.4,15.5,83.7,1020.42,0,0,0,0,0.033073
2022/07/22 00:02:00.000,n,161,14.76,9.72,18.72,15.5,83.7,1020.42,0,0,0,0,0.034828
2022/07/22 00:03:00.004,n,134,12.24,11.52,12.96,15.5,83.7,1020.42,0,0,0,0,0.033951
2022/07/22 00:04:00.001,n,94,6.84,1.44,9,15.5,83.7,1020.42,0,0,0,0,0.039177
2022/07/22 00:05:00.000,n,138,1.8,0.72,2.52,15.5,83.8,1020.42,0,0,0,0,0.033073
2022/07/22 00:06:00.000,n,192,4.68,2.16,9.36,15.5,83.8,1020.42,0,0,0,0,0.033951
2022/07/22 00:07:00.010,n,137,12.24,11.52,13.68,15.5,83.8,1020.42,0,0,0,0,0.033073
2022/07/22 00:08:00.007,n,109,6.48,3.96,7.92,15.4,83.8,1020.52,0,0,0,0,0.035706
2022/07/22 00:09:00.004,n,96,3.24,0.72,6.48,15.4,83.9,1020.42,0,0,0,0,0.035706
2022/07/22 00:10:00.000,n,176,7.92,7.2,10.8,15.4,83.9,1020.52,0,0.1,0,0,0.033951
2022/07/22 00:11:00.000,n,153,11.52,5.04,19.08,15.4,84,1020.42,0,0,0,0,0.033951
2022/07/22 00:12:00.005,n,142,11.52,10.440002,13.32,15.4,83.9,1020.42,0,0,0,0,0.029602
2022/07/22 00:13:00.000,n,111,3.96,1.44,8.28,15.4,83.6,1020.42,0,0,0,0,0.031357
2022/07/22 00:14:00.000,n,143,11.88,9.72,13.68,15.4,83.5,1020.42,0,0,0,0,0.031357
2022/07/22 00:15:00.005,n,76,8.64,3.24,15.12,15.4,83.3,1020.32,0,0,0,0,0.033073
2022/07/22 00:16:00.010,n,120,8.28,3.6,11.16,15.5,83,1020.32,0,0,0,0,0.033073
2022/07/22 00:17:00.000,n,140,17.64,11.88,24.119998,15.5,82.8,1020.22,0,0,0,0,0.033073
2022/07/22 00:18:00.004,n,126,6.12,4.32,7.92,15.5,82.7,1020.32,0,0,0,0,0.034828
2022/07/22 00:19:00.000,n,137,2.88,0.72,6.12,15.5,82.6,1020.22,0,0,0,0,0.032196
2022/07/22 00:20:00.000,n,156,16.56,3.6,25.919998,15.5,82.4,1020.22,0,0,0,0,0.030479
2022/07/22 00:21:00.005,n,152,19.08,12.96,26.28,15.5,82.4,1020.32,0,0,0,0,0.035706
2022/07/22 00:22:00.000,n,149,8.64,7.56,9.72,15.5,82.4,1020.32,0,0,0,0,0.029602
2022/07/22 00:23:00.000,n,124,18.72,17.64,21.24,15.5,82.3,1020.32,0,0,0,0,0.033951
2022/07/22 00:24:00.005,n,118,9.72,5.4,12.6,15.5,82.2,1020.32,0,0,0,0,0.032196
2022/07/22 00:25:00.011,n,132,12.6,11.16,13.32,15.6,82.2,1020.32,0,0,0,0,0.031357
2022/07/22 00:26:00.000,n,135,10.440002,9,11.88,15.6,82.2,1020.32,0,0,0,0,0.030479
2022/07/22 00:27:00.005,n,157,12.96,7.56,16.2,15.6,82.2,1020.32,0,0,0,0,0.030479
2022/07/22 00:28:00.000,n,141,16.919998,13.32,21.24,15.6,82.1,1020.32,0,0,0,0,0.030479
2022/07/22 00:29:00.000,n,134,8.28,6.48,10.440002,15.6,82.1,1020.42,0,0,0,0,0.029602
2022/07/22 00:30:00.005,n,132,15.84,10.8,18.72,15.6,82.1,1020.32,0,0,0,0,0.030479
2022/07/22 00:31:00.000,n,134,14.04,12.96,15.12,15.6,81.9,1020.32,0,0,0,0,0.035706
2022/07/22 00:32:00.000,n,142,17.28,15.12,18.72,15.6,81.8,1020.32,0,0,0,0,0.027847
2022/07/22 00:33:00.005,n,145,17.28,12.96,25.199998,15.6,81.7,1020.32,0,0,0,0,0.027847
2022/07/22 00:34:00.010,n,126,15.48,13.68,15.84,15.6,81.7,1020.32,0,0,0,0,0.028725
2022/07/22 00:35:00.000,n,105,11.16,5.76,14.4,15.6,81.8,1020.32,0,0.1,0,0,0.027847
2022/07/22 00:36:00.005,n,141,16.56,15.12,18,15.6,81.7,1020.32,0,0,0,0,0.029602
2022/07/22 00:37:00.000,n,287,1.44,0.72,2.16,15.7,81.7,1020.32,0,0,0,0,0.029602
2022/07/22 00:38:00.000,n,76,6.48,2.52,9.36,15.7,81.7,1020.32,0,0,0,0,0.026131
2022/07/22 00:39:00.000,n,98,15.48,8.64,16.919998,15.7,81.8,1020.32,0,0,0,0,0.027847
2022/07/22 00:40:00.000,n,94,9.72,5.76,11.52,15.6,81.8,1020.32,0,0,0,0,0.027847
2022/07/22 00:41:00.002,n,106,11.52,10.08,12.24,15.6,81.8,1020.32,0,0,0,0,0.031357
2022/07/22 00:42:00.008,n,114,4.68,3.6,6.12,15.6,82,1020.32,0,0,0,0,0.026131
2022/07/22 00:43:00.012,n,116,7.56,5.4,9.36,15.6,82.1,1020.32,0,0,0,0,0.029602
2022/07/22 00:44:00.001,n,107,7.92,6.84,9,15.6,82.2,1020.22,0,0,0,0,0.02697
2022/07/22 00:45:00.006,n,143,13.68,12.6,14.4,15.6,82.3,1020.22,0,0,0,0,0.027847
2022/07/22 00:46:00.000,n,115,13.68,12.24,15.12,15.6,82.4,1020.22,0,0,0,0,0.027847
2022/07/22 00:47:00.005,n,145,11.52,4.68,13.68,15.6,82.5,1020.32,0.02,0.9,0,0,0.029602
2022/07/22 00:48:00.000,n,139,7.2,5.76,14.04,15.6,82.6,1020.32,0.13,6.7,0,0,0.027847
2022/07/22 00:49:00.000,n,160,6.48,4.68,8.28,15.6,82.8,1020.22,0.26,7.8,0,0,0.028725
2022/07/22 00:50:00.000,n,117,7.2,4.32,9.36,15.5,83.1,1020.22,0.29,1.9,0,0,0.02697
2022/07/22 00:51:00.010,n,163,6.84,3.96,10.8,15.5,83.3,1020.22,0.29,0.6,0,0,0.02697
2022/07/22 00:52:00.007,n,194,6.48,3.96,11.16,15.5,83.5,1020.22,0.29,0,0,0,0.027847
2022/07/22 00:53:00.004,n,152,12.6,10.440002,15.84,15.5,83.6,1020.22,0.29,0,0,0,0.026131
2022/07/22 00:54:00.001,n,150,9.36,6.12,12.24,15.4,83.8,1020.12,0.29,0,0,0,0.030479
2022/07/22 00:55:00.000,n,149,6.84,2.88,10.08,15.4,83.9,1020.22,0.29,0,0,0,0.029602
2022/07/22 00:56:00.000,n,135,15.48,12.24,20.880002,15.4,83.9,1020.22,0.29,0,0,0,0.028725
2022/07/22 00:57:00.000,n,154,11.52,9.72,14.76,15.4,84.1,1020.12,0.29,0,0,0,0.028725
2022/07/22 00:58:00.007,n,143,10.08,7.92,12.96,15.4,84.1,1020.12,0.29,0,0,0,0.030479
2022/07/22 00:59:00.004,n,132,12.6,9.72,14.4,15.4,84.2,1020.12,0.29,0,0,0,0.030479
2022/07/22 01:00:00.000,n,125,8.28,3.96,11.16,15.4,84.2,1020.12,0.29,0,0,0,0.029602
2022/07/22 01:01:00.000,n,154,13.32,5.76,21.24,15.4,84.2,1020.02,0.29,0,0,0,0.028725
2022/07/22 01:02:00.012,n,139,10.440002,9.36,11.88,15.4,84.2,1020.02,0.29,0,0,0,0.02697
2022/07/22 01:03:00.009,n,132,9,7.2,9.72,15.4,84.2,1020.12,0.29,0,0,0,0.028725
2022/07/22 01:04:00.000,n,156,14.4,10.440002,20.16,15.4,84.3,1020.02,0.29,0,0,0,0.029602
2022/07/22 01:05:00.003,n,138,6.12,4.68,7.92,15.5,84.3,1020.02,0.29,0,0,0,0.029602
2022/07/22 01:06:00.000,n,147,2.52,1.08,3.96,15.5,84.2,1020.02,0.29,0,0,0,0.028725
2022/07/22 01:07:00.000,n,138,4.32,3.96,5.04,15.5,84.3,1020.12,0.29,0,0,0,0.027847
2022/07/22 01:08:00.000,n,172,6.84,1.44,15.48,15.5,84.3,1020.02,0.29,0,0,0,0.029602
2022/07/22 01:09:00.008,n,154,11.52,9,15.12,15.5,84.3,1020.02,0.29,0,0,0,0.030479
2022/07/22 01:10:00.005,n,155,21.24,17.28,23.4,15.5,84.3,1019.92,0.29,0,0,0,0.029602
2022/07/22 01:11:00.002,n,111,12.24,9,15.84,15.5,84.2,1019.92,0.29,0,0,0,0.031357
2022/07/22 01:12:00.016,n,140,19.08,17.28,20.519998,15.5,84.1,1019.92,0.29,0,0,0,0.030479
2022/07/22 01:13:00.000,n,170,14.76,11.88,18.72,15.5,84,1019.92,0.29,0,0,0,0.029602
2022/07/22 01:14:00.000,n,76,2.52,1.44,3.24,15.5,83.9,1019.92,0.29,0,0,0,0.032196
2022/07/22 01:15:00.000,n,153,12.24,9.72,16.919998,15.5,83.8,1019.82,0.29,0,0,0,0.032196
2022/07/22 01:16:00.004,n,143,19.44,17.64,21.24,15.5,83.7,1019.82,0.29,0,0,0,0.028725
2022/07/22 01:17:00.001,n,151,18.72,13.32,24.48,15.5,83.6,1019.82,0.29,0,0,0,0.030479
2022/07/22 01:18:00.000,n,129,14.04,10.8,18.359998,15.5,83.5,1019.82,0.29,0,0,0,0.028725
2022/07/22 01:19:00.011,n,125,8.28,6.84,9.72,15.5,83.4,1019.82,0.29,0,0,0,0.030479
2022/07/22 01:20:00.008,n,136,12.24,10.440002,14.04,15.5,83.3,1019.82,0.29,0,0,0,0.031357
2022/07/22 01:21:00.005,n,136,5.76,3.24,7.92,15.6,83.3,1019.92,0.29,0,0,0,0.027847
2022/07/22 01:22:00.000,n,117,9.36,7.92,11.16,15.6,83.2,1019.92,0.3,0,0,0,0.028725
2022/07/22 01:23:00.000,n,112,14.4,11.16,16.56,15.6,83.3,1019.82,0.3,0.3,0,0,0.028725
2022/07/22 01:24:00.000,n,140,25.919998,20.880002,27.72,15.6,83.5,1019.72,0.3,0.2,0,0,0.029602
2022/07/22 01:25:00.000,n,122,16.2,12.96,20.16,15.6,83.7,1019.82,0.3,0,0,0,0.030479
2022/07/22 01:26:00.009,n,103,19.08,16.919998,20.519998,15.6,83.8,1019.92,0.3,0,0,0,0.029602
2022/07/22 01:27:00.006,n,93,12.24,7.92,18,15.6,83.8,1019.82,0.3,0,0,0,0.028725
2022/07/22 01:28:00.003,n,228,2.52,0.72,4.32,15.6,83.8,1019.92,0.33,1.1,0,0,0.027847
2022/07/22 01:29:00.001,n,82,11.88,5.04,13.68,15.6,83.8,1019.82,0.34,0.8,0,0,0.027847
2022/07/22 01:30:00.016,n,94,13.68,12.6,15.12,15.6,83.9,1019.82,0.34,0,0,0,0.027847
2022/07/22 01:31:00.000,n,93,11.16,10.440002,12.96,15.5,83.9,1019.82,0.34,0,0,0,0.028725
2022/07/22 01:32:00.000,n,103,7.2,1.44,10.440002,15.5,83.9,1019.82,0.34,0,0,0,0.033073
2022/07/22 01:33:00.000,n,145,33.119998,30.599998,37.08,15.5,83.4,1019.72,0.34,0,0,0,0.028725
2022/07/22 01:34:00.000,n,133,25.56,20.16,28.08,15.5,83.1,1019.72,0.34,0,0,0,0.030479
2022/07/22 01:35:00.000,n,135,12.24,9,15.84,15.5,82.6,1019.82,0.34,0,0,0,0.029602
2022/07/22 01:36:00.007,n,140,16.919998,15.48,18.359998,15.5,82.2,1019.82,0.34,0,0,0,0.031357
2022/07/22 01:37:00.004,n,99,9,8.64,9.72,15.5,82.1,1019.82,0.34,0,0,0,0.02697
2022/07/22 01:38:00.001,n,100,13.68,8.28,19.44,15.5,81.7,1019.72,0.34,0,0,0,0.022621
2022/07/22 01:39:00.015,n,144,10.440002,9,13.32,15.5,81.6,1019.72,0.34,0,0,0,0.025253
2022/07/22 01:40:00.000,n,127,12.6,11.16,14.76,15.5,81.4,1019.72,0.34,0,0,0,0.028725
2022/07/22 01:41:00.000,n,124,16.2,14.76,17.64,15.5,81.3,1019.72,0.34,0,0,0,0.025253
2022/07/22 01:42:00.000,n,139,12.24,10.8,14.04,15.5,81.2,1019.72,0.34,0,0,0,0.026131
2022/07/22 01:43:00.004,n,80,7.2,5.76,10.440002,15.5,81.2,1019.62,0.34,0,0,0,0.030479
2022/07/22 01:44:00.001,n,133,18.72,18.359998,20.16,15.5,81.1,1019.72,0.34,0,0,0,0.027847
2022/07/22 01:45:00.000,n,121,15.84,13.32,17.28,15.5,81,1019.72,0.34,0,0,0,0.027847
2022/07/22 01:46:00.012,n,161,7.2,2.16,9,15.5,81,1019.72,0.34,0,0,0,0.027847
2022/07/22 01:47:00.008,n,128,5.4,5.04,6.12,15.5,81,1019.62,0.34,0,0,0,0.029602
2022/07/22 01:48:00.006,n,100,12.24,9.72,16.919998,15.5,81.2,1019.72,0.35,0.6,0,0,0.027847
2022/07/22 01:49:00.000,n,132,7.2,5.4,8.28,15.5,81.2,1019.62,0.35,0,0,0,0.02697
2022/07/22 01:50:00.001,n,150,13.32,10.440002,18.359998,15.5,81.3,1019.62,0.35,0,0,0,0.025253
2022/07/22 01:51:00.000,n,125,15.12,12.96,17.28,15.5,81.4,1019.62,0.35,0,0,0,0.027847
2022/07/22 01:52:00.000,n,124,8.28,4.32,10.440002,15.5,81.6,1019.62,0.35,0,0,0,0.025253
2022/07/22 01:53:00.009,n,139,8.28,6.84,12.24,15.5,81.8,1019.62,0.35,0,0,0,0.02697
2022/07/22 01:54:00.006,n,131,14.04,12.96,14.4,15.4,82,1019.62,0.35,0,0,0,0.023499
2022/07/22 01:55:00.003,n,149,12.6,11.16,13.32,15.4,82.1,1019.52,0.35,0,0,0,0.025253
2022/07/22 01:56:00.000,n,117,18,15.48,20.16,15.4,82.3,1019.52,0.35,0,0,0,0.024376
2022/07/22 01:57:00.015,n,145,10.8,8.28,12.24,15.4,82.5,1019.52,0.35,0,0,0,0.025253
2022/07/22 01:58:00.000,n,137,4.68,2.52,6.84,15.4,82.6,1019.52,0.35,0,0,0,0.024376
2022/07/22 01:59:00.000,n,94,11.52,9.72,15.12,15.4,82.8,1019.62,0.35,0,0,0,0.025253
2022/07/22 02:00:00.000,n,106,11.16,6.84,12.96,15.4,82.9,1019.52,0.35,0,0,0,0.025253
2022/07/22 02:01:00.004,n,154,5.4,4.32,6.48,15.4,83,1019.62,0.35,0,0,0,0.02697
2022/07/22 02:02:00.000,n,164,6.48,5.04,7.56,15.4,83.1,1019.52,0.35,0,0,0,0.022621
2022/07/22 02:03:00.000,n,137,11.88,10.440002,12.96,15.4,83.2,1019.62,0.35,0,0,0,0.024376
2022/07/22 02:04:00.011,n,127,11.16,10.08,12.24,15.4,83.3,1019.62,0.35,0,0,0,0.022621
2022/07/22 02:05:00.008,n,130,15.12,13.68,18,15.4,83.4,1019.72,0.35,0,0,0,0.023499
2022/07/22 02:06:00.005,n,165,14.76,10.8,20.519998,15.4,83.4,1019.62,0.35,0,0,0,0.024376
2022/07/22 02:07:00.000,n,152,9,6.12,11.52,15.4,83.4,1019.72,0.35,0,0,0,0.024376
2022/07/22 02:08:00.002,n,134,15.12,8.28,21.24,15.4,83.4,1019.62,0.35,0,0,0,0.025253
2022/07/22 02:09:00.000,n,124,20.16,16.2,25.199998,15.5,83.3,1019.62,0.35,0,0,0,0.024376
2022/07/22 02:10:00.000,n,95,5.4,1.44,7.92,15.5,83.2,1019.72,0.35,0,0,0,0.026131
2022/07/22 02:11:00.000,n,176,6.12,0.36,10.440002,15.5,83.2,1019.72,0.38,1.1,0,0,0.025253
2022/07/22 02:12:00.008,n,170,14.4,5.04,16.919998,15.5,83.2,1019.72,0.38,0.7,0,0,0.023499
2022/07/22 02:13:00.005,n,141,33.119998,30.96,36,15.5,83,1019.52,0.4,1.1,0,0,0.027847
2022/07/22 02:14:00.011,n,133,5.04,0.72,8.28,15.4,83.1,1019.62,0.4,0,0,0,0.025253
2022/07/22 02:15:00.009,n,149,24.84,20.880002,28.44,15.4,82.8,1019.42,0.4,0,0,0,0.026131
2022/07/22 02:16:00.000,n,146,23.759998,21.599998,25.919998,15.4,82.6,1019.42,0.4,0,0,0,0.02697
2022/07/22 02:17:00.004,n,61,10.08,6.84,12.96,15.4,82.6,1019.52,0.4,0,0,0,0.024376
2022/07/22 02:18:00.000,n,120,5.4,3.6,7.56,15.4,82.4,1019.52,0.4,0,0,0,0.02697
2022/07/22 02:19:00.000,n,131,18.72,15.48,24.84,15.3,81.9,1019.52,0.4,0,0,0,0.027847
2022/07/22 02:20:00.000,n,131,17.28,14.4,20.880002,15.3,81.6,1019.52,0.4,0,0,0,0.024376
2022/07/22 02:21:00.010,n,86,6.48,4.32,8.28,15.4,81.4,1019.52,0.4,0,0,0,0.026131
2022/07/22 02:22:00.007,n,121,6.48,3.6,8.64,15.4,81.3,1019.52,0.4,0,0,0,0.025253
2022/07/22 02:23:00.005,n,122,8.28,3.6,13.32,15.5,81.3,1019.52,0.4,0,0,0,0.02697
2022/07/22 02:24:00.002,n,123,14.76,12.6,16.2,15.5,81.4,1019.52,0.4,0,0,0,0.027847
2022/07/22 02:25:00.000,n,116,5.76,3.96,9.36,15.5,81.5,1019.52,0.4,0,0,0,0.026131
2022/07/22 02:26:00.000,n,115,10.440002,9,11.88,15.5,81.6,1019.52,0.4,0,0,0,0.024376
2022/07/22 02:27:00.000,n,104,6.12,5.04,7.2,15.5,81.8,1019.52,0.4,0,0,0,0.024376
2022/07/22 02:28:00.000,n,89,12.6,7.56,15.84,15.5,82,1019.52,0.4,0,0,0,0.02697
2022/07/22 02:29:00.005,n,136,15.12,13.32,16.56,15.5,82.1,1019.52,0.4,0,0,0,0.023499
2022/07/22 02:30:00.002,n,148,7.2,3.24,10.8,15.5,82.3,1019.62,0.4,0,0,0,0.026131
2022/07/22 02:31:00.000,n,151,9.72,6.48,14.04,15.5,82.3,1019.62,0.4,0,0,0,0.026131
2022/07/22 02:32:00.013,n,126,9,6.48,10.8,15.5,82.4,1019.62,0.4,0,0,0,0.022621
2022/07/22 02:33:00.010,n,129,13.32,11.16,14.76,15.5,82.4,1019.62,0.4,0,0,0,0.025253
2022/07/22 02:34:00.000,n,140,4.68,3.96,7.92,15.5,82.5,1019.62,0.4,0,0,0,0.025253
2022/07/22 02:35:00.000,n,123,10.440002,7.92,12.6,15.5,82.5,1019.72,0.4,0,0,0,0.024376
2022/07/22 02:36:00.004,n,95,8.64,3.6,12.24,15.5,82.5,1019.72,0.41,0.4,0,0,0.024376
2022/07/22 02:37:00.001,n,169,8.28,6.12,9.36,15.5,82.5,1019.72,0.42,0.5,0,0,0.021782
2022/07/22 02:38:00.000,n,170,11.52,10.440002,12.24,15.5,82.6,1019.72,0.43,0.3,0,0,0.024376
2022/07/22 02:39:00.000,n,101,10.8,6.12,13.68,15.5,82.7,1019.72,0.43,0.1,0,0,0.022621
2022/07/22 02:40:00.012,n,55,7.56,5.04,12.24,15.5,82.8,1019.72,0.43,0,0,0,0.024376
2022/07/22 02:41:00.010,n,62,6.48,3.96,9,15.5,82.8,1019.72,0.43,0,0,0,0.025253
2022/07/22 02:42:00.007,n,129,30.599998,25.56,34.56,15.5,82.7,1019.62,0.43,0,0,0,0.024376
2022/07/22 02:43:00.000,n,103,15.48,9,19.08,15.5,82.4,1019.62,0.43,0,0,0,0.025253
2022/07/22 02:44:00.002,n,136,24.119998,22.68,25.199998,15.5,82.1,1019.62,0.43,0,0,0,0.02697
2022/07/22 02:45:00.000,n,120,28.8,27.359998,30.239998,15.5,81.9,1019.52,0.43,0,0,0,0.024376
2022/07/22 02:46:00.000,n,104,3.96,1.8,6.12,15.5,81.9,1019.52,0.43,0,0,0,0.026131
2022/07/22 02:47:00.000,n,125,13.32,12.24,14.04,15.5,81.9,1019.52,0.43,0,0,0,0.02697
2022/07/22 02:48:00.007,n,134,7.92,3.6,11.16,15.5,82,1019.62,0.43,0,0,0,0.02697
2022/07/22 02:49:00.004,n,122,10.440002,6.84,14.04,15.5,81.9,1019.62,0.43,0,0,0,0.024376
2022/07/22 02:50:00.002,n,122,13.68,10.08,16.2,15.5,81.7,1019.62,0.43,0,0,0,0.027847
2022/07/22 02:51:00.016,n,126,8.28,6.12,9.72,15.5,81.6,1019.62,0.43,0,0,0,0.025253
2022/07/22 02:52:00.000,n,99,6.12,2.16,8.28,15.5,81.6,1019.62,0.43,0,0,0,0.026131
2022/07/22 02:53:00.000,n,100,7.2,6.84,9.36,15.5,81.5,1019.52,0.43,0,0,0,0.026131
2022/07/22 02:54:00.000,n,107,11.16,9.72,13.32,15.5,81.6,1019.52,0.43,0,0,0,0.028725
2022/07/22 02:55:00.006,n,130,17.28,13.32,20.16,15.5,81.6,1019.42,0.43,0,0,0,0.027847
2022/07/22 02:56:00.003,n,172,3.24,1.08,5.04,15.4,81.6,1019.42,0.43,0,0,0,0.025253
2022/07/22 02:57:00.000,n,154,12.24,10.8,17.28,15.4,81.6,1019.42,0.43,0,0,0,0.028725
2022/07/22 02:58:00.000,n,129,10.440002,7.92,11.16,15.4,81.7,1019.42,0.43,0,0,0,0.027847
2022/07/22 02:59:00.011,n,152,8.28,2.16,11.88,15.4,81.7,1019.42,0.43,0,0,0,0.02697
2022/07/22 03:00:00.008,n,132,12.24,3.24,17.28,15.4,81.6,1019.32,0.43,0,0,0,0.023499
2022/07/22 03:01:00.000,n,163,11.52,6.12,17.28,15.4,81.6,1019.32,0.43,0,0,0,0.027847
2022/07/22 03:02:00.002,n,142,9,7.92,10.8,15.5,81.6,1019.32,0.43,0,0,0,0.025253
2022/07/22 03:03:00.000,n,142,12.6,11.88,13.68,15.5,81.7,1019.32,0.43,0,0,0,0.025253
2022/07/22 03:04:00.000,n,116,3.96,1.44,8.28,15.4,81.8,1019.32,0.43,0,0,0,0.027847
2022/07/22 03:05:00.000,n,152,16.919998,13.32,26.28,15.4,81.8,1019.32,0.43,0,0,0,0.021782
2022/07/22 03:06:00.008,n,131,13.32,11.16,15.84,15.5,81.8,1019.32,0.43,0,0,0,0.026131
2022/07/22 03:07:00.005,n,134,18.359998,14.4,21.24,15.5,81.8,1019.22,0.43,0,0,0,0.025253
2022/07/22 03:08:00.002,n,120,5.4,2.16,9.36,15.5,81.8,1019.22,0.43,0,0,0,0.026131
2022/07/22 03:09:00.016,n,133,6.12,5.4,7.92,15.5,81.8,1019.22,0.43,0,0,0,0.026131
2022/07/22 03:10:00.000,n,108,6.48,5.4,7.92,15.5,81.9,1019.22,0.43,0,0,0,0.02697
2022/07/22 03:11:00.000,n,143,11.16,9.36,13.32,15.5,81.9,1019.22,0.43,0,0,0,0.023499
2022/07/22 03:12:00.000,n,131,8.64,7.56,9.72,15.5,81.9,1019.12,0.43,0,0,0,0.028725
2022/07/22 03:13:00.005,n,150,25.56,19.44,29.16,15.5,81.9,1019.12,0.46,1.8,0,0,0.02697
2022/07/22 03:14:00.002,n,132,16.56,11.16,19.08,15.5,81.9,1019.12,0.46,0,0,0,0.026131
2022/07/22 03:15:00.000,n,111,10.440002,7.2,13.32,15.6,81.8,1019.12,0.46,0,0,0,0.029602
2022/07/22 03:16:00.000,n,104,9.72,8.28,11.52,15.6,81.8,1019.12,0.46,0,0,0,0.02697
2022/07/22 03:17:00.011,n,110,10.440002,8.28,12.96,15.6,81.8,1019.12,0.46,0,0,0,0.028725
2022/07/22 03:18:00.007,n,105,12.24,4.68,16.919998,15.6,81.8,1019.12,0.46,0,0,0,0.02697
2022/07/22 03:19:00.000,n,149,6.12,3.96,8.28,15.6,81.7,1019.12,0.46,0,0,0,0.027847
2022/07/22 03:20:00.002,n,102,8.64,6.48,11.52,15.6,81.6,1019.12,0.46,0,0,0,0.02697
2022/07/22 03:21:00.000,n,84,7.2,4.32,11.52,15.6,81.5,1019.12,0.46,0,0,0,0.02697
2022/07/22 03:22:00.000,n,76,5.4,3.96,6.84,15.6,81.5,1019.22,0.46,0,0,0,0.02697
2022/07/22 03:23:00.000,n,147,6.84,5.04,10.8,15.6,81.6,1019.22,0.46,0,0,0,0.02697
2022/07/22 03:24:00.006,n,96,6.12,5.04,7.2,15.6,81.5,1019.22,0.46,0,0,0,0.025253
2022/07/22 03:25:00.003,n,156,7.92,5.76,12.24,15.6,81.5,1019.22,0.46,0,0,0,0.02697
2022/07/22 03:26:00.001,n,107,12.6,10.8,14.76,15.6,81.5,1019.22,0.46,0,0,0,0.031357
2022/07/22 03:27:00.015,n,128,7.2,5.04,7.92,15.6,81.6,1019.22,0.46,0,0,0,0.027847
2022/07/22 03:28:00.000,n,100,14.4,13.32,15.48,15.6,81.6,1019.22,0.46,0,0,0,0.025253
2022/07/22 03:29:00.000,n,124,5.4,4.32,6.48,15.6,81.5,1019.22,0.46,0,0,0,0.028725
2022/07/22 03:30:00.006,n,101,7.92,3.96,10.8,15.6,81.5,1019.22,0.46,0,0,0,0.028725
2022/07/22 03:31:00.002,n,149,7.2,3.96,16.56,15.6,81.5,1019.12,0.46,0,0,0,0.027847
2022/07/22 03:32:00.000,n,119,11.88,9.72,13.32,15.6,81.4,1019.12,0.46,0,0,0,0.031357
2022/07/22 03:33:00.000,n,135,6.84,5.4,7.92,15.6,81.5,1019.22,0.46,0,0,0,0.029602
2022/07/22 03:34:00.012,n,73,2.16,1.08,3.24,15.6,81.6,1019.22,0.46,0,0,0,0.029602
2022/07/22 03:35:00.010,n,116,9.72,7.92,12.24,15.6,81.6,1019.22,0.46,0,0,0,0.028725
2022/07/22 03:36:00.007,n,135,7.92,4.32,10.8,15.6,81.6,1019.22,0.46,0,0,0,0.027847
2022/07/22 03:37:00.000,n,156,2.88,2.16,3.6,15.6,81.7,1019.32,0.46,0,0,0,0.029602
2022/07/22 03:38:00.002,n,93,5.4,1.08,7.2,15.5,81.8,1019.22,0.46,0,0,0,0.02697
2022/07/22 03:39:00.000,n,139,11.16,5.4,12.96,15.5,81.9,1019.22,0.46,0,0,0,0.033073
2022/07/22 03:40:00.000,n,116,9.72,3.96,11.52,15.5,81.8,1019.22,0.46,0,0,0,0.029602
2022/07/22 03:41:00.000,n,129,8.28,5.76,10.08,15.5,81.8,1019.22,0.46,0,0,0,0.028725
2022/07/22 03:42:00.007,n,49,5.76,2.88,8.64,15.5,81.8,1019.32,0.46,0,0,0,0.030479
2022/07/22 03:43:00.004,n,147,10.440002,8.64,15.84,15.5,81.8,1019.32,0.46,0,0,0,0.032196
2022/07/22 03:44:00.001,n,136,10.08,8.64,11.52,15.5,81.7,1019.32,0.46,0,0,0,0.027847
2022/07/22 03:45:00.015,n,144,9.36,8.28,10.08,15.5,81.8,1019.32,0.46,0,0,0,0.031357
2022/07/22 03:46:00.000,n,129,13.32,12.6,14.4,15.5,81.8,1019.32,0.46,0,0,0,0.031357
2022/07/22 03:47:00.000,n,175,9.72,8.64,12.24,15.5,81.9,1019.22,0.46,0,0,0,0.030479
2022/07/22 03:48:00.000,n,155,11.16,10.08,11.88,15.5,81.9,1019.22,0.46,0,0,0,0.030479
2022/07/22 03:49:00.004,n,140,14.04,11.16,17.28,15.5,82,1019.22,0.46,0,0,0,0.030479
2022/07/22 03:50:00.001,n,141,12.6,10.8,14.76,15.5,81.9,1019.22,0.46,0.2,0,0,0.02697
2022/07/22 03:51:00.000,n,140,9,4.32,11.52,15.5,82,1019.22,0.46,0,0,0,0.033073
2022/07/22 03:52:00.000,n,113,5.4,3.6,7.92,15.5,82.1,1019.22,0.46,0,0,0,0.030479
2022/07/22 03:53:00.011,n,131,12.6,10.8,14.04,15.5,82.2,1019.12,0.47,0.1,0,0,0.028725
2022/07/22 03:54:00.009,n,122,16.56,14.04,19.08,15.5,82.4,1019.22,0.5,1.9,0,0,0.031357
2022/07/22 03:55:00.000,n,161,20.880002,18,23.04,15.5,82.5,1019.12,0.54,2.2,0,0,0.031357
2022/07/22 03:56:00.000,n,133,16.919998,14.76,18,15.5,82.7,1019.12,0.54,0,0,0,0.031357
2022/07/22 03:57:00.003,n,88,27.359998,23.04,32.399998,15.5,82.7,1019.12,0.55,0.6,0,0,0.028725
2022/07/22 03:58:00.000,n,116,13.68,7.92,16.919998,15.5,82.7,1019.12,0.55,0,0,0,0.030479
2022/07/22 03:59:00.000,n,109,12.6,11.88,12.96,15.5,82.7,1019.12,0.55,0,0,0,0.030479
2022/07/22 04:00:00.000,n,106,6.12,1.44,8.64,15.5,82.7,1019.12,0.55,0,0,0,0.026131
2022/07/22 04:01:00.009,n,145,14.76,11.16,18.359998,15.5,82.7,1019.12,0.55,0,0,0,0.029602
2022/07/22 04:02:00.006,n,114,10.8,9,12.96,15.5,82.8,1019.02,0.55,0,0,0,0.029602
2022/07/22 04:03:00.003,n,133,10.8,9,13.68,15.4,82.9,1019.02,0.55,0,0,0,0.030479
2022/07/22 04:04:00.000,n,153,9.72,7.92,11.88,15.4,82.9,1018.92,0.55,0,0,0,0.028725
2022/07/22 04:05:00.000,n,186,11.16,7.92,17.28,15.4,82.9,1018.92,0.55,0,0,0,0.028725
2022/07/22 04:06:00.000,n,142,9.36,4.32,11.52,15.4,82.9,1018.92,0.55,0,0,0,0.029602
2022/07/22 04:07:00.000,n,129,20.880002,19.44,23.04,15.4,82.9,1018.92,0.55,0,0,0,0.029602
2022/07/22 04:08:00.007,n,124,10.440002,9,13.68,15.4,82.9,1018.92,0.55,0,0,0,0.028725
2022/07/22 04:09:00.003,n,146,14.4,12.96,15.48,15.4,82.8,1018.82,0.55,0,0,0,0.027847
2022/07/22 04:10:00.000,n,72,3.24,3.24,3.24,15.4,82.8,1018.82,0.55,0,0,0,0.02697
2022/07/22 04:11:00.014,n,157,13.68,7.2,19.8,15.4,82.7,1018.82,0.55,0,0,0,0.027847
2022/07/22 04:12:00.010,n,147,15.12,12.96,21.96,15.4,82.6,1018.82,0.55,0,0,0,0.02697
2022/07/22 04:13:00.000,n,124,13.32,7.56,20.519998,15.4,82.6,1018.82,0.55,0,0,0,0.031357
2022/07/22 04:14:00.000,n,113,12.24,10.8,15.48,15.4,82.5,1018.72,0.55,0,0,0,0.027847
2022/07/22 04:15:00.003,n,152,11.16,7.2,16.56,15.4,82.3,1018.72,0.55,0,0,0,0.028725
2022/07/22 04:16:00.000,n,136,11.88,10.08,13.68,15.4,82.2,1018.72,0.55,0,0,0,0.026131
2022/07/22 04:17:00.000,n,134,10.440002,7.56,13.68,15.4,82.1,1018.72,0.55,0,0,0,0.028725
2022/07/22 04:18:00.000,n,126,14.04,13.32,14.76,15.4,82,1018.72,0.55,0,0,0,0.026131
2022/07/22 04:19:00.009,n,145,15.84,15.12,16.2,15.4,82.1,1018.72,0.55,0,0,0,0.025253
2022/07/22 04:20:00.005,n,109,9.72,7.92,12.6,15.4,82.1,1018.72,0.55,0,0,0,0.02697
2022/07/22 04:21:00.002,n,136,5.4,2.88,6.84,15.4,82,1018.72,0.55,0,0,0,0.02697
2022/07/22 04:22:00.000,n,154,9.72,6.12,14.4,15.4,82.1,1018.72,0.55,0,0,0,0.02697
2022/07/22 04:23:00.000,n,127,10.8,9,14.4,15.4,82.1,1018.62,0.55,0,0,0,0.026131
2022/07/22 04:24:00.000,n,130,10.440002,9.72,11.52,15.4,82,1018.72,0.55,0,0,0,0.023499
2022/07/22 04:25:00.000,n,109,10.8,8.64,14.4,15.4,82,1018.62,0.55,0,0,0,0.023499
2022/07/22 04:26:00.007,n,130,10.08,7.92,13.32,15.4,82,1018.62,0.55,0,0,0,0.028725
2022/07/22 04:27:00.003,n,126,21.96,20.880002,25.56,15.4,81.5,1018.52,0.55,0,0,0,0.025253
2022/07/22 04:28:00.000,n,135,10.440002,8.64,13.32,15.5,81.2,1018.52,0.55,0,0,0,0.032196
2022/07/22 04:29:00.015,n,155,5.4,1.8,7.92,15.5,81,1018.72,0.55,0,0,0,0.02697
2022/07/22 04:30:00.012,n,96,9,7.92,9.72,15.5,81,1018.72,0.55,0.3,0,0,0.024376
2022/07/22 04:31:00.000,n,96,10.8,8.28,12.6,15.5,81.1,1018.72,0.55,0,0,0,0.027847
2022/07/22 04:32:00.000,n,127,10.08,8.64,11.16,15.5,81.3,1018.72,0.55,0,0,0,0.026131
2022/07/22 04:33:00.005,n,105,10.440002,9,11.52,15.5,81.5,1018.72,0.56,0.1,0,0,0.02697
2022/07/22 04:34:00.002,n,99,15.84,12.24,19.08,15.5,81.8,1018.82,0.59,1.9,0,0,0.02697
2022/07/22 04:35:00.000,n,136,11.88,7.92,14.76,15.5,82.1,1018.92,0.62,1.6,0,0,0.024376
2022/07/22 04:36:00.000,n,124,14.4,10.8,16.919998,15.4,82.4,1018.92,0.64,1.7,0,0,0.02697
2022/07/22 04:37:00.013,n,123,13.32,10.440002,18.72,15.4,82.7,1019.02,0.64,0,0,0,0.027847